Content
SEND FEEDBACK

Daily
Averages
Monthly
Summary
United States of America

HARTFORD, SOUTH DAKOTA


Home > North America > United States > South Dakota
Elevation: 1550 feet     Latitude: 43 43N     Longitude: 096 53W

WEATHER
 
SELECT A DAY
Number of Records: 203,104;   Date Range: 1/1/95 - 8/12/14
 
SHARE

PRINT THIS DATA

[ ← Previous Day ]
WEATHER ALMANAC - JANUARY 16, 2013
[ Next Day → ]
[ °C ]   °F
Weather ElementAverageHighLow
Temperature28.7 °F42.1 °F (12:56 pm)14 °F (10:56 pm)
Dewpoint22.9 °F32 °F (2:56 pm)6.1 °F (9:56 pm)
Humidity79.1 %92 % (7:56 am)65 % (12:56 am)
Barometer29.95 in30.31 in (11:56 pm)29.76 in (4:20 am)
Wind Speed10.4 mph19.6 mph (2:56 pm)
Wind Gust27.6 mph (3:56 pm)
Weather ElementAverage
Visibility9.7 mi
Wind DirectionSSE (173.1 °)

Weather ElementTotal
Precipitation---
Heating Degree Days37 (Base 65)
Averaged from 36 records on January 16, 2013
WEATHER CONDITIONS BREAKOUT
WIND DIRECTION BREAKOUT
WEATHER BY HOUR - JANUARY 16, 2013
[ °C ]   °F
Local TimeTemperatureDewpointHumidityBarometerVisibilityWind DirectionWind SpeedGust SpeedPrecipitationEventsConditions
12:56 AM24.1 °F14.0 °F65 %29.86 in10.0 miSSW (210°)10.4 mph18.4 mphOvercast
1:24 AM24.8 °F15.8 °F69 %29.79 in9.0 miSW (220°)9.2 mph17.3 mph0.00 inSnowLight Snow
1:49 AM24.8 °F17.6 °F74 %29.78 in10.0 miSW (220°)6.9 mph0.00 inOvercast
1:56 AM26.1 °F18.0 °F71 %29.84 in10.0 miSW (220°)9.2 mph0.00 inOvercast
2:06 AM26.6 °F19.4 °F74 %29.78 in10.0 miSW (230°)9.2 mphSnowLight Snow
2:23 AM26.6 °F21.2 °F80 %29.78 in9.0 miSW (230°)9.2 mph0.00 inSnowLight Snow
2:56 AM27.0 °F23.0 °F85 %29.84 in8.0 miVariable6.9 mph0.00 inSnowLight Snow
3:15 AM28.4 °F24.8 °F86 %29.77 in9.0 miVariable3.5 mph0.00 inSnowLight Snow
3:56 AM30.0 °F26.1 °F85 %29.82 in9.0 miWSW (250°)8.1 mph0.00 inSnowLight Snow
4:20 AM30.2 °F26.6 °F86 %29.76 in9.0 miWSW (240°)8.1 mph0.00 inSnowLight Snow
4:32 AM30.2 °F26.6 °F86 %29.76 in9.0 miWSW (250°)8.1 mph0.00 inSnowLight Snow
4:56 AM32.0 °F28.0 °F85 %29.81 in9.0 miWSW (250°)6.9 mph0.00 inSnowLight Snow
5:09 AM32.0 °F28.4 °F87 %29.76 in9.0 miWest (260°)5.8 mph0.00 inSnowLight Snow
5:56 AM30.2 °F26.6 °F86 %29.76 in10.0 miWest (260°)9.2 mphClear
6:56 AM30.0 °F27.0 °F88 %29.84 in10.0 miWest (270°)9.2 mphPartly Cloudy
7:56 AM28.9 °F27.0 °F92 %29.86 in10.0 miWest (270°)6.9 mphMostly Cloudy
8:56 AM32.0 °F28.0 °F85 %29.90 in10.0 miWest (260°)6.9 mphPartly Cloudy
9:56 AM35.1 °F28.9 °F78 %29.90 in10.0 miWest (270°)16.1 mph20.7 mphPartly Cloudy
10:56 AM37.9 °F30.9 °F76 %29.91 in10.0 miWest (280°)12.7 mphMostly Cloudy
11:56 AM41.0 °F30.9 °F67 %29.89 in10.0 miWest (270°)11.5 mphScattered Clouds
12:56 PM42.1 °F30.9 °F65 %29.88 in10.0 miWest (280°)17.3 mph26.5 mphPartly Cloudy
1:56 PM42.1 °F30.9 °F65 %29.91 in10.0 miWNW (300°)15.0 mph24.2 mphPartly Cloudy
2:56 PM41.0 °F32.0 °F70 %29.94 in10.0 miNW (310°)19.6 mph26.5 mphPartly Cloudy
3:56 PM37.9 °F30.9 °F76 %30.01 in10.0 miNNW (330°)18.4 mph27.6 mphOvercast
4:35 PM33.8 °F28.4 °F81 %30.01 in10.0 miNNE (30°)19.6 mph25.3 mphOvercast
4:56 PM30.9 °F27.0 °F85 %30.08 in10.0 miNNE (30°)15.0 mphOvercast
5:19 PM28.4 °F24.8 °F86 %30.04 in10.0 miNNE (20°)15.0 mphMostly Cloudy
5:56 PM28.0 °F24.1 °F85 %30.13 in10.0 miNorth (10°)12.7 mphMostly Cloudy
6:20 PM26.6 °F23.0 °F86 %30.10 in10.0 miNorth (10°)13.8 mphOvercast
6:54 PM23.0 °F19.4 °F86 %30.14 in10.0 miNNE (20°)11.5 mphScattered Clouds
6:56 PM23.0 °F19.0 °F85 %30.20 in10.0 miNNE (20°)12.7 mphScattered Clouds
7:56 PM19.9 °F14.0 °F78 %30.23 in10.0 miNNE (20°)12.7 mphClear
8:56 PM17.1 °F10.0 °F74 %30.27 in10.0 miNNE (30°)8.1 mphClear
9:56 PM15.1 °F6.1 °F68 %30.30 in10.0 miNNE (20°)5.8 mphClear
10:56 PM14.0 °F7.0 °F74 %30.30 in10.0 miCalmClear
11:56 PM14.0 °F9.0 °F80 %30.31 in10.0 miNNW (340°)4.6 mphMostly Cloudy
Hourly data recorded from KFSD, located miles away from Hartford, South Dakota







STORIES FROM OUR PARTNERS